START_TIME,STEP,MOV.,AL01,t_acc.,AL02,t_acc.,E37,t_acc.,H21,t_acc.
1980-11-15 18:00:22.890 ,1,0,0.,24.0,0.,24.0,2.,24.0,0.,24.0
1980-11-15 18:00:46.890 ,2,1,0.,24.0,0.,24.0,0.,24.0,0.,24.0
1980-11-15 18:01:10.890 ,2,0,0.,24.0,0.,24.0,0.,24.0,0.,24.0
1980-11-15 18:01:34.890 ,3,1,0.,24.0,0.,24.0,0.,24.0,0.,24.0
1980-11-15 18:01:58.890 ,0,0,0.,24.0,0.,24.0,0.,24.0,0.,24.0
1980-11-15 18:02:48.090 ,0,0,0.,24.0,0.,24.0,0.,24.0,0.,24.0
1980-11-15 18:03:10.890 ,5,1,0.,24.0,0.,24.0,1.,24.0,0.,24.0
1980-11-15 18:03:34.890 ,5,0,0.,24.0,0.,24.0,0.,24.0,0.,24.0
1980-11-15 18:03:58.890 ,6,1,0.,24.0,0.,24.0,0.,24.0,0.,24.0
1980-11-15 18:04:22.890 ,6,0,0.,24.0,0.,24.0,0.,24.0,0.,24.0
1980-11-15 18:04:46.890 ,7,1,2.,24.0,0.,24.0,1.,24.0,0.,24.0
1980-11-15 18:05:10.890 ,7,0,8.,24.0,0.,24.0,0.,24.0,0.,24.0
1980-11-15 18:05:34.890 ,7,1,13.,24.0,0.,24.0,2.,24.0,0.,24.0
1980-11-15 18:05:58.890 ,7,0,4.,24.0,0.,24.0,0.,24.0,0.,24.0
1980-11-15 18:06:22.890 ,6,1,4.,24.0,0.,24.0,1.,24.0,0.,24.0
1980-11-15 18:06:46.890 ,6,0,0.,24.0,0.,24.0,0.,24.0,0.,24.0
1980-11-15 18:07:10.890 ,5,1,0.,24.0,0.,24.0,1.,24.0,0.,24.0
1980-11-15 18:07:34.890 ,5,0,0.,24.0,0.,24.0,0.,24.0,0.,24.0
1980-11-15 18:07:58.890 ,4,1,0.,24.0,0.,24.0,0.,24.0,0.,24.0
1980-11-15 18:08:22.890 ,4,0,1.,24.0,0.,24.0,0.,24.0,0.,24.0
1980-11-15 18:08:46.890 ,3,1,0.,24.0,0.,24.0,0.,24.0,0.,24.0
1980-11-15 18:09:10.890 ,3,0,0.,24.0,0.,24.0,0.,24.0,0.,24.0
1980-11-15 18:09:34.890 ,2,1,0.,24.0,0.,24.0,0.,24.0,0.,24.0
1980-11-15 18:09:58.890 ,2,0,0.,24.0,0.,24.0,0.,24.0,0.,24.0
1980-11-15 18:10:22.890 ,1,1,0.,24.0,0.,24.0,0.,24.0,0.,24.0
1980-11-15 18:10:46.890 ,1,0,0.,24.0,0.,24.0,0.,24.0,0.,24.0
1980-11-15 18:11:10.890 ,0,1,0.,24.0,0.,24.0,1.,24.0,0.,24.0
1980-11-15 18:11:34.890 ,0,0,0.,24.0,0.,24.0,1.,24.0,0.,24.0
1980-11-15 18:11:58.890 ,0,1,0.,24.0,0.,24.0,1.,24.0,0.,24.0
1980-11-15 18:12:22.890 ,0,0,0.,24.0,0.,24.0,0.,24.0,0.,24.0
1980-11-15 18:12:46.890 ,1,1,0.,24.0,0.,24.0,2.,24.0,0.,24.0
1980-11-15 18:13:10.890 ,1,0,0.,24.0,0.,24.0,0.,24.0,0.,24.0
1980-11-15 18:13:34.890 ,2,1,0.,24.0,0.,24.0,0.,24.0,0.,24.0
1980-11-15 18:13:58.890 ,2,0,0.,24.0,0.,24.0,2.,24.0,0.,24.0
1980-11-15 18:14:22.890 ,3,1,0.,24.0,0.,24.0,0.,24.0,0.,24.0
1980-11-15 18:14:46.890 ,3,0,0.,24.0,0.,24.0,0.,24.0,0.,24.0
1980-11-15 18:15:10.890 ,4,1,0.,24.0,0.,24.0,0.,24.0,0.,24.0
1980-11-15 18:15:34.890 ,4,0,0.,24.0,0.,24.0,0.,24.0,0.,24.0
1980-11-15 18:15:58.890 ,5,1,0.,24.0,0.,24.0,1.,24.0,0.,24.0
1980-11-15 18:16:22.890 ,5,0,0.,24.0,0.,24.0,0.,24.0,0.,24.0
1980-11-15 18:16:46.890 ,6,1,0.,24.0,0.,24.0,1.,24.0,0.,24.0
1980-11-15 18:17:10.890 ,6,0,0.,24.0,0.,24.0,0.,24.0,0.,24.0
1980-11-15 18:17:34.890 ,7,1,1.,24.0,0.,24.0,1.,24.0,0.,24.0
1980-11-15 18:17:58.890 ,7,0,8.,24.0,0.,24.0,0.,24.0,0.,24.0
1980-11-15 18:18:22.890 ,7,1,6.,24.0,0.,24.0,0.,24.0,0.,24.0
1980-11-15 18:18:46.890 ,7,0,8.,24.0,0.,24.0,0.,24.0,0.,24.0
1980-11-15 18:19:10.890 ,6,1,11.,24.0,0.,24.0,0.,24.0,0.,24.0
1980-11-15 18:19:34.890 ,6,0,0.,24.0,0.,24.0,1.,24.0,0.,24.0
1980-11-15 18:19:58.890 ,5,1,0.,24.0,0.,24.0,0.,24.0,0.,24.0
1980-11-15 18:20:22.890 ,5,0,0.,24.0,0.,24.0,0.,24.0,0.,24.0
1980-11-15 18:20:46.890 ,4,1,0.,24.0,0.,24.0,0.,24.0,0.,24.0
1980-11-15 18:21:10.890 ,4,0,0.,24.0,0.,24.0,0.,24.0,0.,24.0
1980-11-15 18:21:34.890 ,3,1,0.,24.0,0.,24.0,0.,24.0,0.,24.0
1980-11-15 18:21:58.890 ,3,0,0.,24.0,0.,24.0,1.,24.0,0.,24.0
1980-11-15 18:22:22.890 ,2,1,0.,24.0,0.,24.0,1.,24.0,0.,24.0
1980-11-15 18:22:46.890 ,2,0,0.,24.0,0.,24.0,0.,24.0,0.,24.0
1980-11-15 18:23:10.890 ,1,1,0.,24.0,0.,24.0,0.,24.0,0.,24.0
1980-11-15 18:23:34.890 ,1,0,0.,24.0,0.,24.0,0.,24.0,0.,24.0
1980-11-15 18:23:58.890 ,0,1,0.,24.0,0.,24.0,1.,24.0,0.,24.0
1980-11-15 18:24:22.890 ,0,0,0.,24.0,0.,24.0,0.,24.0,0.,24.0
1980-11-15 18:24:46.890 ,0,1,0.,24.0,0.,24.0,0.,24.0,0.,24.0
1980-11-15 18:25:10.890 ,0,0,0.,24.0,0.,24.0,0.,24.0,0.,24.0
1980-11-15 18:25:34.890 ,1,1,0.,24.0,0.,24.0,0.,24.0,0.,24.0
1980-11-15 18:25:58.890 ,1,0,1.,24.0,0.,24.0,0.,24.0,0.,24.0
1980-11-15 18:26:22.890 ,2,1,0.,24.0,0.,24.0,0.,24.0,0.,24.0
1980-11-15 18:26:46.890 ,2,0,0.,24.0,0.,24.0,1.,24.0,0.,24.0
1980-11-15 18:27:10.890 ,3,1,0.,24.0,0.,24.0,2.,24.0,0.,24.0
1980-11-15 18:27:34.890 ,3,0,0.,24.0,0.,24.0,1.,24.0,0.,24.0
1980-11-15 18:27:58.890 ,4,1,0.,24.0,0.,24.0,0.,24.0,0.,24.0
1980-11-15 18:28:22.890 ,4,0,0.,24.0,0.,24.0,1.,24.0,0.,24.0
1980-11-15 18:28:46.890 ,5,1,0.,24.0,0.,24.0,2.,24.0,0.,24.0
1980-11-15 18:29:10.890 ,5,0,0.,24.0,0.,24.0,0.,24.0,0.,24.0
1980-11-15 18:29:34.890 ,6,1,0.,24.0,0.,24.0,1.,24.0,0.,24.0
1980-11-15 18:29:58.890 ,6,0,0.,24.0,0.,24.0,1.,24.0,0.,24.0
1980-11-15 18:30:22.890 ,7,1,3.,24.0,0.,24.0,0.,24.0,0.,24.0
1980-11-15 18:30:46.890 ,7,0,14.,24.0,0.,24.0,1.,24.0,0.,24.0
1980-11-15 18:31:10.890 ,7,1,15.,24.0,0.,24.0,2.,24.0,0.,24.0
1980-11-15 18:31:34.890 ,7,0,13.,24.0,0.,24.0,0.,24.0,0.,24.0
1980-11-15 18:31:58.890 ,6,1,8.,24.0,0.,24.0,1.,24.0,0.,24.0
1980-11-15 18:32:22.890 ,6,0,0.,24.0,0.,24.0,1.,24.0,0.,24.0
1980-11-15 18:32:46.890 ,5,1,0.,24.0,0.,24.0,1.,24.0,0.,24.0
1980-11-15 18:33:10.890 ,5,0,0.,24.0,0.,24.0,1.,24.0,0.,24.0
1980-11-15 18:33:34.890 ,4,1,0.,24.0,0.,24.0,0.,24.0,0.,24.0
1980-11-15 18:33:58.890 ,4,0,0.,24.0,0.,24.0,0.,24.0,0.,24.0
1980-11-15 18:34:22.890 ,3,1,0.,24.0,0.,24.0,0.,24.0,0.,24.0
1980-11-15 18:34:46.890 ,3,0,0.,24.0,0.,24.0,0.,24.0,0.,24.0
1980-11-15 18:35:10.890 ,2,1,0.,24.0,0.,24.0,0.,24.0,0.,24.0
1980-11-15 18:35:34.890 ,2,0,0.,24.0,0.,24.0,1.,24.0,0.,24.0
1980-11-15 18:35:58.890 ,1,1,0.,24.0,0.,24.0,1.,24.0,0.,24.0
1980-11-15 18:36:22.890 ,1,0,0.,24.0,0.,24.0,0.,24.0,0.,24.0
1980-11-15 18:36:46.890 ,0,1,0.,24.0,0.,24.0,0.,24.0,0.,24.0
1980-11-15 18:37:10.890 ,0,0,0.,24.0,0.,24.0,0.,24.0,0.,24.0
1980-11-15 18:37:34.890 ,0,1,0.,24.0,0.,24.0,0.,24.0,0.,24.0
1980-11-15 18:37:58.890 ,0,0,0.,24.0,0.,24.0,0.,24.0,0.,24.0
1980-11-15 18:38:22.890 ,1,1,0.,24.0,0.,24.0,0.,24.0,0.,24.0
1980-11-15 18:38:46.890 ,1,0,0.,24.0,0.,24.0,0.,24.0,0.,24.0
1980-11-15 18:39:10.890 ,2,1,0.,24.0,0.,24.0,0.,24.0,0.,24.0
1980-11-15 18:39:34.890 ,2,0,0.,24.0,0.,24.0,1.,24.0,0.,24.0
1980-11-15 18:39:58.890 ,3,1,0.,24.0,0.,24.0,0.,24.0,0.,24.0
1980-11-15 18:40:22.890 ,3,0,0.,24.0,0.,24.0,0.,24.0,0.,24.0
1980-11-15 18:40:46.890 ,4,1,0.,24.0,0.,24.0,1.,24.0,0.,24.0
1980-11-15 18:41:10.890 ,4,0,0.,24.0,0.,24.0,2.,24.0,0.,24.0
1980-11-15 18:41:34.890 ,5,1,0.,24.0,0.,24.0,2.,24.0,0.,24.0
1980-11-15 18:41:58.890 ,5,0,0.,24.0,0.,24.0,0.,24.0,0.,24.0
1980-11-15 18:42:22.890 ,6,1,0.,24.0,0.,24.0,1.,24.0,0.,24.0
1980-11-15 18:42:46.890 ,0,0,0.,24.0,0.,24.0,0.,24.0,0.,24.0
1980-11-15 18:46:12.690 ,0,0,,0,,0,,0,,0
1980-11-15 18:46:22.890 ,4,1,0.,24.0,0.,24.0,1.,24.0,0.,24.0
1980-11-15 18:46:46.890 ,4,0,0.,24.0,0.,24.0,1.,24.0,0.,24.0
1980-11-15 18:47:10.890 ,3,1,0.,24.0,0.,24.0,0.,24.0,0.,24.0
1980-11-15 18:47:34.890 ,3,0,0.,24.0,0.,24.0,0.,24.0,0.,24.0
1980-11-15 18:47:58.890 ,2,1,0.,24.0,0.,24.0,0.,24.0,0.,24.0
1980-11-15 18:48:22.890 ,2,0,0.,24.0,0.,24.0,0.,24.0,0.,24.0
1980-11-15 18:48:46.890 ,1,1,0.,24.0,0.,24.0,0.,24.0,0.,24.0
1980-11-15 18:49:10.890 ,1,0,1.,24.0,0.,24.0,0.,24.0,0.,24.0
1980-11-15 18:49:34.890 ,0,1,0.,24.0,0.,24.0,1.,24.0,0.,24.0
1980-11-15 18:49:58.890 ,0,0,0.,24.0,0.,24.0,2.,24.0,0.,24.0
1980-11-15 18:50:22.890 ,0,1,0.,24.0,0.,24.0,0.,24.0,0.,24.0
1980-11-15 18:50:46.890 ,0,0,0.,24.0,0.,24.0,1.,24.0,0.,24.0
1980-11-15 18:51:10.890 ,1,1,0.,24.0,0.,24.0,1.,24.0,0.,24.0
1980-11-15 18:51:34.890 ,1,0,0.,24.0,0.,24.0,1.,24.0,0.,24.0
1980-11-15 18:51:58.890 ,2,1,0.,24.0,1.,24.0,0.,24.0,0.,24.0
1980-11-15 18:52:22.890 ,2,0,0.,24.0,0.,24.0,1.,24.0,0.,24.0
1980-11-15 18:52:46.890 ,3,1,0.,24.0,0.,24.0,0.,24.0,0.,24.0
1980-11-15 18:53:10.890 ,3,0,0.,24.0,0.,24.0,1.,24.0,0.,24.0
1980-11-15 18:53:34.890 ,4,1,0.,24.0,0.,24.0,0.,24.0,0.,24.0
1980-11-15 18:53:58.890 ,4,0,0.,24.0,0.,24.0,0.,24.0,0.,24.0
1980-11-15 18:54:22.890 ,5,1,0.,24.0,0.,24.0,0.,24.0,0.,24.0
1980-11-15 18:54:46.890 ,5,0,0.,24.0,0.,24.0,0.,24.0,0.,24.0
1980-11-15 18:55:10.890 ,6,1,0.,24.0,0.,24.0,0.,24.0,0.,24.0
1980-11-15 18:55:34.890 ,6,0,0.,24.0,0.,24.0,0.,24.0,0.,24.0
1980-11-15 18:55:58.890 ,7,1,1.,24.0,0.,24.0,0.,24.0,0.,24.0
1980-11-15 18:56:22.890 ,7,0,10.,24.0,0.,24.0,0.,24.0,0.,24.0
1980-11-15 18:56:46.890 ,7,1,10.,24.0,0.,24.0,1.,24.0,0.,24.0
1980-11-15 18:57:10.890 ,7,0,8.,24.0,0.,24.0,0.,24.0,0.,24.0
1980-11-15 18:57:34.890 ,6,1,11.,24.0,0.,24.0,0.,24.0,0.,24.0
1980-11-15 18:57:58.890 ,6,0,0.,24.0,0.,24.0,0.,24.0,0.,24.0
1980-11-15 18:58:22.890 ,5,1,0.,24.0,0.,24.0,0.,24.0,0.,24.0
1980-11-15 18:58:46.890 ,5,0,0.,24.0,0.,24.0,0.,24.0,0.,24.0
1980-11-15 18:59:10.890 ,4,1,0.,24.0,0.,24.0,0.,24.0,0.,24.0
1980-11-15 18:59:34.890 ,4,0,0.,24.0,0.,24.0,0.,24.0,0.,24.0
1980-11-15 18:59:58.890 ,3,1,0.,24.0,0.,24.0,1.,24.0,0.,24.0
1980-11-15 19:00:22.890 ,3,0,0.,24.0,0.,24.0,0.,24.0,0.,24.0
1980-11-15 19:00:46.890 ,2,1,0.,24.0,0.,24.0,0.,24.0,0.,24.0
1980-11-15 19:01:10.890 ,2,0,0.,24.0,0.,24.0,0.,24.0,0.,24.0
1980-11-15 19:01:34.890 ,1,1,0.,24.0,0.,24.0,1.,24.0,0.,24.0
1980-11-15 19:01:58.890 ,1,0,0.,24.0,0.,24.0,1.,24.0,0.,24.0
1980-11-15 19:02:22.890 ,0,1,0.,24.0,0.,24.0,1.,24.0,0.,24.0
1980-11-15 19:02:46.890 ,0,0,0.,24.0,0.,24.0,0.,24.0,0.,24.0
1980-11-15 19:03:10.890 ,0,1,0.,24.0,0.,24.0,0.,24.0,0.,24.0
1980-11-15 19:03:34.890 ,0,0,0.,24.0,0.,24.0,1.,24.0,0.,24.0
1980-11-15 19:03:58.890 ,1,1,0.,24.0,0.,24.0,2.,24.0,0.,24.0
1980-11-15 19:04:22.890 ,1,0,0.,24.0,0.,24.0,0.,24.0,0.,24.0
1980-11-15 19:04:46.890 ,2,1,0.,24.0,0.,24.0,0.,24.0,0.,24.0
1980-11-15 19:05:10.890 ,2,0,0.,24.0,0.,24.0,1.,24.0,0.,24.0
1980-11-15 19:05:34.890 ,3,1,0.,24.0,0.,24.0,0.,24.0,0.,24.0
1980-11-15 19:05:58.890 ,3,0,0.,24.0,0.,24.0,0.,24.0,0.,24.0
1980-11-15 19:06:22.890 ,4,1,0.,24.0,0.,24.0,0.,24.0,0.,24.0
1980-11-15 19:06:46.890 ,4,0,0.,24.0,0.,24.0,0.,24.0,0.,24.0
1980-11-15 19:07:10.890 ,5,1,0.,24.0,0.,24.0,2.,24.0,0.,24.0
1980-11-15 19:07:34.890 ,5,0,0.,24.0,0.,24.0,0.,24.0,0.,24.0
1980-11-15 19:07:58.890 ,6,1,0.,24.0,0.,24.0,0.,24.0,0.,24.0
1980-11-15 19:08:22.890 ,6,0,0.,24.0,0.,24.0,2.,24.0,0.,24.0
1980-11-15 19:08:46.890 ,7,1,4.,24.0,0.,24.0,1.,24.0,0.,24.0
1980-11-15 19:09:10.890 ,7,0,8.,24.0,0.,24.0,1.,24.0,0.,24.0
1980-11-15 19:09:34.890 ,7,1,13.,24.0,0.,24.0,0.,24.0,0.,24.0
1980-11-15 19:09:58.890 ,7,0,6.,24.0,0.,24.0,1.,24.0,0.,24.0
1980-11-15 19:10:22.890 ,6,1,6.,24.0,0.,24.0,0.,24.0,0.,24.0
1980-11-15 19:10:46.890 ,6,0,0.,24.0,0.,24.0,1.,24.0,0.,24.0
1980-11-15 19:11:10.890 ,5,1,0.,24.0,0.,24.0,0.,24.0,0.,24.0
1980-11-15 19:11:34.890 ,5,0,0.,24.0,0.,24.0,0.,24.0,0.,24.0
1980-11-15 19:11:58.890 ,4,1,0.,24.0,0.,24.0,0.,24.0,0.,24.0
1980-11-15 19:12:22.890 ,4,0,0.,24.0,0.,24.0,0.,24.0,0.,24.0
1980-11-15 19:12:46.890 ,3,1,0.,24.0,0.,24.0,0.,24.0,0.,24.0
1980-11-15 19:13:10.890 ,3,0,0.,24.0,0.,24.0,0.,24.0,0.,24.0
1980-11-15 19:13:34.890 ,2,1,0.,24.0,0.,24.0,1.,24.0,0.,24.0
1980-11-15 19:13:58.890 ,2,0,0.,24.0,0.,24.0,1.,24.0,0.,24.0
1980-11-15 19:14:22.890 ,1,1,0.,24.0,0.,24.0,2.,24.0,0.,24.0
1980-11-15 19:14:46.890 ,1,0,0.,24.0,0.,24.0,0.,24.0,0.,24.0
1980-11-15 19:15:10.890 ,0,1,0.,24.0,0.,24.0,0.,24.0,0.,24.0
1980-11-15 19:15:34.890 ,0,0,0.,24.0,0.,24.0,2.,24.0,0.,24.0
1980-11-15 19:15:58.890 ,0,1,0.,24.0,0.,24.0,1.,24.0,0.,24.0
1980-11-15 19:16:22.890 ,0,0,1.,24.0,0.,24.0,0.,24.0,0.,24.0
1980-11-15 19:16:46.890 ,1,1,0.,24.0,0.,24.0,0.,24.0,0.,24.0
1980-11-15 19:17:10.890 ,1,0,0.,24.0,0.,24.0,0.,24.0,0.,24.0
1980-11-15 19:17:34.890 ,2,1,0.,24.0,0.,24.0,0.,24.0,0.,24.0
1980-11-15 19:17:58.890 ,2,0,0.,24.0,0.,24.0,0.,24.0,0.,24.0
1980-11-15 19:18:22.890 ,3,1,0.,24.0,0.,24.0,1.,24.0,0.,24.0
1980-11-15 19:18:46.890 ,3,0,0.,24.0,1.,24.0,1.,24.0,0.,24.0
1980-11-15 19:19:10.890 ,4,1,0.,24.0,0.,24.0,0.,24.0,0.,24.0
1980-11-15 19:19:34.890 ,4,0,0.,24.0,0.,24.0,0.,24.0,0.,24.0
1980-11-15 19:19:58.890 ,5,1,0.,24.0,0.,24.0,0.,24.0,0.,24.0
1980-11-15 19:20:22.890 ,5,0,0.,24.0,0.,24.0,0.,24.0,0.,24.0
1980-11-15 19:20:46.890 ,6,1,0.,24.0,0.,24.0,0.,24.0,0.,24.0
1980-11-15 19:21:10.890 ,6,0,0.,24.0,0.,24.0,1.,24.0,0.,24.0
1980-11-15 19:21:34.890 ,7,1,1.,24.0,0.,24.0,0.,24.0,0.,24.0
1980-11-15 19:21:58.890 ,7,0,10.,24.0,0.,24.0,0.,24.0,0.,24.0
1980-11-15 19:22:22.890 ,7,1,8.,24.0,0.,24.0,1.,24.0,0.,24.0
1980-11-15 19:22:46.890 ,7,0,11.,24.0,0.,24.0,1.,24.0,0.,24.0
1980-11-15 19:23:10.890 ,6,1,6.,24.0,0.,24.0,0.,24.0,0.,24.0
1980-11-15 19:23:34.890 ,6,0,0.,24.0,1.,24.0,1.,24.0,0.,24.0
1980-11-15 19:23:58.890 ,5,1,0.,24.0,0.,24.0,1.,24.0,0.,24.0
1980-11-15 19:24:22.890 ,5,0,0.,24.0,0.,24.0,0.,24.0,0.,24.0
1980-11-15 19:24:46.890 ,4,1,0.,24.0,0.,24.0,0.,24.0,0.,24.0
1980-11-15 19:25:10.890 ,4,0,0.,24.0,0.,24.0,1.,24.0,0.,24.0
1980-11-15 19:25:34.890 ,3,1,0.,24.0,0.,24.0,0.,24.0,0.,24.0
1980-11-15 19:25:58.890 ,3,0,0.,24.0,0.,24.0,0.,24.0,0.,24.0
1980-11-15 19:26:22.890 ,2,1,0.,24.0,0.,24.0,2.,24.0,0.,24.0
1980-11-15 19:26:46.890 ,2,0,0.,24.0,0.,24.0,0.,24.0,0.,24.0
1980-11-15 19:27:10.890 ,1,1,0.,24.0,0.,24.0,0.,24.0,0.,24.0
1980-11-15 19:27:34.890 ,1,0,0.,24.0,0.,24.0,1.,24.0,0.,24.0
1980-11-15 19:27:58.890 ,0,1,0.,24.0,0.,24.0,0.,24.0,0.,24.0
1980-11-15 19:28:22.890 ,0,0,0.,24.0,0.,24.0,0.,24.0,0.,24.0
1980-11-15 19:28:46.890 ,0,1,0.,24.0,0.,24.0,0.,24.0,0.,24.0
1980-11-15 19:29:10.890 ,0,0,0.,24.0,0.,24.0,0.,24.0,0.,24.0
1980-11-15 19:29:34.890 ,1,1,0.,24.0,0.,24.0,0.,24.0,0.,24.0
1980-11-15 19:29:58.890 ,1,0,0.,24.0,0.,24.0,1.,24.0,0.,24.0
1980-11-15 19:30:22.890 ,2,1,0.,24.0,0.,24.0,1.,24.0,0.,24.0
1980-11-15 19:30:46.890 ,2,0,0.,24.0,0.,24.0,0.,24.0,0.,24.0
1980-11-15 19:31:10.890 ,3,1,0.,24.0,0.,24.0,1.,24.0,0.,24.0
1980-11-15 19:31:34.890 ,3,0,0.,24.0,0.,24.0,1.,24.0,0.,24.0
1980-11-15 19:31:58.890 ,4,1,0.,24.0,0.,24.0,1.,24.0,0.,24.0
1980-11-15 19:32:22.890 ,4,0,0.,24.0,0.,24.0,1.,24.0,0.,24.0
1980-11-15 19:32:46.890 ,5,1,0.,24.0,0.,24.0,0.,24.0,0.,24.0
1980-11-15 19:33:10.890 ,5,0,0.,24.0,0.,24.0,0.,24.0,0.,24.0
1980-11-15 19:33:34.890 ,6,1,0.,24.0,0.,24.0,0.,24.0,0.,24.0
1980-11-15 19:33:58.890 ,6,0,0.,24.0,0.,24.0,0.,24.0,0.,24.0
1980-11-15 19:34:22.890 ,7,1,2.,24.0,0.,24.0,3.,24.0,0.,24.0
1980-11-15 19:34:46.890 ,7,0,9.,24.0,0.,24.0,0.,24.0,0.,24.0
1980-11-15 19:35:10.890 ,7,1,10.,24.0,0.,24.0,0.,24.0,0.,24.0
1980-11-15 19:35:34.890 ,7,0,10.,24.0,0.,24.0,0.,24.0,0.,24.0
1980-11-15 19:35:58.890 ,6,1,3.,24.0,0.,24.0,0.,24.0,0.,24.0
1980-11-15 19:36:22.890 ,6,0,0.,24.0,0.,24.0,0.,24.0,0.,24.0
1980-11-15 19:36:46.890 ,5,1,0.,24.0,0.,24.0,0.,24.0,0.,24.0
1980-11-15 19:37:10.890 ,5,0,0.,24.0,0.,24.0,1.,24.0,0.,24.0
1980-11-15 19:37:34.890 ,4,1,0.,24.0,0.,24.0,1.,24.0,0.,24.0
1980-11-15 19:37:58.890 ,4,0,0.,24.0,0.,24.0,1.,24.0,0.,24.0
1980-11-15 19:38:22.890 ,3,1,0.,24.0,0.,24.0,0.,24.0,0.,24.0
1980-11-15 19:38:46.890 ,3,0,0.,24.0,0.,24.0,2.,24.0,0.,24.0
1980-11-15 19:39:10.890 ,2,1,0.,24.0,0.,24.0,0.,24.0,0.,24.0
1980-11-15 19:39:34.890 ,2,0,0.,24.0,0.,24.0,0.,24.0,0.,24.0
1980-11-15 19:39:58.890 ,1,1,0.,24.0,0.,24.0,0.,24.0,0.,24.0
1980-11-15 19:40:22.890 ,1,0,0.,24.0,0.,24.0,1.,24.0,0.,24.0
1980-11-15 19:40:46.890 ,0,1,0.,24.0,0.,24.0,0.,24.0,0.,24.0
1980-11-15 19:41:10.890 ,0,0,0.,24.0,0.,24.0,1.,24.0,0.,24.0
1980-11-15 19:41:34.890 ,0,1,0.,24.0,0.,24.0,0.,24.0,0.,24.0
1980-11-15 19:41:58.890 ,0,0,0.,24.0,0.,24.0,1.,24.0,0.,24.0
1980-11-15 19:42:22.890 ,1,1,0.,24.0,0.,24.0,0.,24.0,0.,24.0
1980-11-15 19:42:46.890 ,1,0,0.,24.0,0.,24.0,0.,24.0,0.,24.0
1980-11-15 19:43:10.890 ,2,1,0.,24.0,0.,24.0,3.,24.0,0.,24.0
1980-11-15 19:43:34.890 ,2,0,0.,24.0,0.,24.0,0.,24.0,0.,24.0
1980-11-15 19:43:58.890 ,3,1,0.,24.0,0.,24.0,1.,24.0,0.,24.0
1980-11-15 19:44:22.890 ,3,0,0.,24.0,0.,24.0,0.,24.0,0.,24.0
1980-11-15 19:44:46.890 ,4,1,0.,24.0,0.,24.0,0.,24.0,0.,24.0
1980-11-15 19:45:10.890 ,4,0,0.,24.0,0.,24.0,0.,24.0,0.,24.0
1980-11-15 19:45:34.890 ,5,1,0.,24.0,0.,24.0,1.,24.0,0.,24.0
1980-11-15 19:45:58.890 ,5,0,0.,24.0,0.,24.0,1.,24.0,0.,24.0
1980-11-15 19:46:22.890 ,6,1,0.,24.0,0.,24.0,0.,24.0,0.,24.0
1980-11-15 19:46:46.890 ,6,0,0.,24.0,0.,24.0,0.,24.0,0.,24.0
1980-11-15 19:47:10.890 ,7,1,2.,24.0,0.,24.0,0.,24.0,0.,24.0
1980-11-15 19:47:34.890 ,7,0,11.,24.0,0.,24.0,0.,24.0,0.,24.0
1980-11-15 19:47:58.890 ,7,1,9.,24.0,0.,24.0,2.,24.0,0.,24.0
1980-11-15 19:48:22.890 ,7,0,5.,24.0,0.,24.0,0.,24.0,0.,24.0
1980-11-15 19:48:46.890 ,6,1,9.,24.0,0.,24.0,2.,24.0,0.,24.0
1980-11-15 19:49:10.890 ,6,0,0.,24.0,0.,24.0,0.,24.0,0.,24.0
1980-11-15 19:49:34.890 ,5,1,0.,24.0,0.,24.0,1.,24.0,0.,24.0
1980-11-15 19:49:58.890 ,5,0,0.,24.0,0.,24.0,0.,24.0,0.,24.0
1980-11-15 19:50:22.890 ,4,1,0.,24.0,0.,24.0,0.,24.0,0.,24.0
1980-11-15 19:50:46.890 ,4,0,0.,24.0,0.,24.0,0.,24.0,0.,24.0
1980-11-15 19:51:10.890 ,3,1,0.,24.0,0.,24.0,0.,24.0,0.,24.0
1980-11-15 19:51:34.890 ,3,0,0.,24.0,0.,24.0,0.,24.0,0.,24.0
1980-11-15 19:51:58.890 ,2,1,0.,24.0,0.,24.0,1.,24.0,0.,24.0
1980-11-15 19:52:22.890 ,2,0,0.,24.0,0.,24.0,0.,24.0,0.,24.0
1980-11-15 19:52:46.890 ,1,1,0.,24.0,0.,24.0,1.,24.0,0.,24.0
1980-11-15 19:53:10.890 ,1,0,0.,24.0,0.,24.0,0.,24.0,0.,24.0
1980-11-15 19:53:34.890 ,0,1,0.,24.0,0.,24.0,1.,24.0,0.,24.0
1980-11-15 19:53:58.890 ,0,0,0.,24.0,0.,24.0,0.,24.0,0.,24.0
1980-11-15 19:54:22.890 ,0,1,0.,24.0,0.,24.0,0.,24.0,0.,24.0
1980-11-15 19:54:46.890 ,0,0,0.,24.0,0.,24.0,1.,24.0,0.,24.0
1980-11-15 19:55:10.890 ,1,1,0.,24.0,0.,24.0,0.,24.0,0.,24.0
1980-11-15 19:55:34.890 ,1,0,0.,24.0,0.,24.0,0.,24.0,0.,24.0
1980-11-15 19:55:58.890 ,2,1,0.,24.0,0.,24.0,0.,24.0,0.,24.0
1980-11-15 19:56:22.890 ,2,0,0.,24.0,0.,24.0,0.,24.0,0.,24.0
1980-11-15 19:56:46.890 ,3,1,0.,24.0,0.,24.0,0.,24.0,0.,24.0
1980-11-15 19:57:10.890 ,3,0,0.,24.0,0.,24.0,1.,24.0,0.,24.0
1980-11-15 19:57:34.890 ,4,1,0.,24.0,0.,24.0,0.,24.0,0.,24.0
1980-11-15 19:57:58.890 ,4,0,0.,24.0,0.,24.0,2.,24.0,0.,24.0
1980-11-15 19:58:22.890 ,5,1,0.,24.0,0.,24.0,0.,24.0,0.,24.0
1980-11-15 19:58:46.890 ,5,0,0.,24.0,0.,24.0,0.,24.0,0.,24.0
1980-11-15 19:59:10.890 ,6,1,0.,24.0,0.,24.0,0.,24.0,0.,24.0
1980-11-15 19:59:34.890 ,6,0,0.,24.0,0.,24.0,0.,24.0,0.,24.0
1980-11-15 19:59:58.890 ,7,1,2.,24.0,0.,24.0,0.,24.0,0.,24.0
1980-11-15 20:00:22.890 ,7,0,10.,24.0,0.,24.0,1.,24.0,0.,24.0
1980-11-15 20:00:46.890 ,7,1,13.,24.0,0.,24.0,1.,24.0,0.,24.0
1980-11-15 20:01:10.890 ,7,0,7.,24.0,0.,24.0,0.,24.0,0.,24.0
1980-11-15 20:01:34.890 ,6,1,4.,24.0,0.,24.0,0.,24.0,0.,24.0
1980-11-15 20:01:58.890 ,6,0,0.,24.0,0.,24.0,3.,24.0,0.,24.0
1980-11-15 20:02:22.890 ,5,1,0.,24.0,0.,24.0,0.,24.0,0.,24.0
1980-11-15 20:02:46.890 ,5,0,0.,24.0,0.,24.0,0.,24.0,0.,24.0
1980-11-15 20:03:10.890 ,4,1,0.,24.0,0.,24.0,1.,24.0,0.,24.0
1980-11-15 20:03:34.890 ,4,0,0.,24.0,0.,24.0,1.,24.0,0.,24.0
1980-11-15 20:03:58.890 ,3,1,0.,24.0,0.,24.0,0.,24.0,0.,24.0
1980-11-15 20:04:22.890 ,3,0,0.,24.0,0.,24.0,0.,24.0,0.,24.0
1980-11-15 20:04:46.890 ,2,1,0.,24.0,0.,24.0,0.,24.0,0.,24.0
1980-11-15 20:05:10.890 ,2,0,0.,24.0,0.,24.0,0.,24.0,0.,24.0
1980-11-15 20:05:34.890 ,1,1,0.,24.0,0.,24.0,0.,24.0,0.,24.0
1980-11-15 20:05:58.890 ,1,0,0.,24.0,0.,24.0,0.,24.0,0.,24.0
1980-11-15 20:06:22.890 ,0,1,0.,24.0,0.,24.0,0.,24.0,0.,24.0
1980-11-15 20:06:46.890 ,0,0,0.,24.0,0.,24.0,1.,24.0,0.,24.0
1980-11-15 20:07:10.890 ,0,1,0.,24.0,0.,24.0,0.,24.0,0.,24.0
1980-11-15 20:07:34.890 ,0,0,0.,24.0,0.,24.0,1.,24.0,0.,24.0
1980-11-15 20:07:58.890 ,1,1,0.,24.0,0.,24.0,0.,24.0,0.,24.0
1980-11-15 20:08:22.890 ,1,0,0.,24.0,0.,24.0,0.,24.0,0.,24.0
1980-11-15 20:08:46.890 ,2,1,0.,24.0,0.,24.0,0.,24.0,0.,24.0
1980-11-15 20:09:10.890 ,2,0,0.,24.0,0.,24.0,0.,24.0,0.,24.0
1980-11-15 20:09:34.890 ,3,1,0.,24.0,0.,24.0,0.,24.0,0.,24.0
1980-11-15 20:09:58.890 ,3,0,0.,24.0,0.,24.0,0.,24.0,0.,24.0
1980-11-15 20:10:22.890 ,4,1,0.,24.0,0.,24.0,0.,24.0,0.,24.0
1980-11-15 20:10:46.890 ,4,0,0.,24.0,0.,24.0,2.,24.0,0.,24.0
1980-11-15 20:11:10.890 ,5,1,0.,24.0,0.,24.0,1.,24.0,0.,24.0
1980-11-15 20:11:34.890 ,5,0,0.,24.0,0.,24.0,0.,24.0,0.,24.0
1980-11-15 20:11:58.890 ,6,1,0.,24.0,0.,24.0,0.,24.0,0.,24.0
1980-11-15 20:12:22.890 ,6,0,0.,24.0,0.,24.0,0.,24.0,0.,24.0
1980-11-15 20:12:46.890 ,7,1,7.,24.0,0.,24.0,1.,24.0,0.,24.0
1980-11-15 20:13:10.890 ,7,0,5.,24.0,0.,24.0,0.,24.0,0.,24.0
1980-11-15 20:13:34.890 ,7,1,11.,24.0,0.,24.0,0.,24.0,0.,24.0
1980-11-15 20:13:58.890 ,7,0,9.,24.0,0.,24.0,0.,24.0,0.,24.0
1980-11-15 20:14:22.890 ,6,1,8.,24.0,0.,24.0,1.,24.0,0.,24.0
1980-11-15 20:14:46.890 ,6,0,0.,24.0,0.,24.0,1.,24.0,0.,24.0
1980-11-15 20:15:10.890 ,5,1,0.,24.0,0.,24.0,0.,24.0,0.,24.0
1980-11-15 20:15:34.890 ,5,0,0.,24.0,0.,24.0,0.,24.0,0.,24.0
1980-11-15 20:15:58.890 ,4,1,0.,24.0,0.,24.0,1.,24.0,0.,24.0
1980-11-15 20:16:22.890 ,4,0,0.,24.0,0.,24.0,1.,24.0,0.,24.0
1980-11-15 20:16:46.890 ,3,1,0.,24.0,0.,24.0,1.,24.0,0.,24.0
1980-11-15 20:17:10.890 ,3,0,2.,24.0,0.,24.0,2.,24.0,0.,24.0
1980-11-15 20:17:34.890 ,2,1,0.,24.0,0.,24.0,0.,24.0,0.,24.0
1980-11-15 20:17:58.890 ,2,0,0.,24.0,0.,24.0,0.,24.0,0.,24.0
1980-11-15 20:18:22.890 ,1,1,0.,24.0,0.,24.0,0.,24.0,0.,24.0
1980-11-15 20:18:46.890 ,1,0,0.,24.0,0.,24.0,0.,24.0,0.,24.0
1980-11-15 20:19:10.890 ,0,1,0.,24.0,0.,24.0,0.,24.0,0.,24.0
1980-11-15 20:19:34.890 ,0,0,0.,24.0,0.,24.0,0.,24.0,0.,24.0
1980-11-15 20:19:58.890 ,0,1,0.,24.0,0.,24.0,0.,24.0,0.,24.0
1980-11-15 20:20:22.890 ,0,0,0.,24.0,0.,24.0,0.,24.0,0.,24.0
1980-11-15 20:20:46.890 ,1,1,0.,24.0,0.,24.0,0.,24.0,0.,24.0
1980-11-15 20:21:10.890 ,1,0,0.,24.0,0.,24.0,1.,24.0,0.,24.0
1980-11-15 20:21:34.890 ,2,1,0.,24.0,0.,24.0,2.,24.0,0.,24.0
1980-11-15 20:21:58.890 ,2,0,0.,24.0,0.,24.0,0.,24.0,0.,24.0
1980-11-15 20:22:22.890 ,3,1,0.,24.0,0.,24.0,1.,24.0,0.,24.0
1980-11-15 20:22:46.890 ,3,0,0.,24.0,0.,24.0,0.,24.0,0.,24.0
1980-11-15 20:23:10.890 ,4,1,0.,24.0,0.,24.0,1.,24.0,0.,24.0
1980-11-15 20:23:34.890 ,4,0,0.,24.0,0.,24.0,1.,24.0,0.,24.0
1980-11-15 20:23:58.890 ,5,1,0.,24.0,0.,24.0,0.,24.0,0.,24.0
1980-11-15 20:24:22.890 ,5,0,0.,24.0,0.,24.0,0.,24.0,0.,24.0
1980-11-15 20:24:46.890 ,6,1,0.,24.0,0.,24.0,0.,24.0,0.,24.0
1980-11-15 20:25:10.890 ,6,0,0.,24.0,0.,24.0,0.,24.0,0.,24.0
1980-11-15 20:25:34.890 ,7,1,4.,24.0,0.,24.0,0.,24.0,0.,24.0
1980-11-15 20:25:58.890 ,7,0,15.,24.0,0.,24.0,1.,24.0,0.,24.0
1980-11-15 20:26:22.890 ,7,1,13.,24.0,0.,24.0,0.,24.0,0.,24.0
1980-11-15 20:26:46.890 ,7,0,13.,24.0,0.,24.0,1.,24.0,0.,24.0
1980-11-15 20:27:10.890 ,6,1,10.,24.0,0.,24.0,0.,24.0,0.,24.0
1980-11-15 20:27:34.890 ,6,0,0.,24.0,0.,24.0,0.,24.0,0.,24.0
1980-11-15 20:27:58.890 ,5,1,0.,24.0,0.,24.0,1.,24.0,0.,24.0
1980-11-15 20:28:22.890 ,5,0,0.,24.0,0.,24.0,0.,24.0,0.,24.0
1980-11-15 20:28:46.890 ,4,1,0.,24.0,0.,24.0,0.,24.0,0.,24.0
1980-11-15 20:29:10.890 ,4,0,0.,24.0,0.,24.0,0.,24.0,0.,24.0
1980-11-15 20:29:34.890 ,3,1,0.,24.0,0.,24.0,0.,24.0,0.,24.0
1980-11-15 20:29:58.890 ,3,0,0.,24.0,0.,24.0,0.,24.0,0.,24.0
1980-11-15 20:30:22.890 ,2,1,0.,24.0,0.,24.0,0.,24.0,0.,24.0
1980-11-15 20:30:46.890 ,2,0,0.,24.0,0.,24.0,0.,24.0,0.,24.0
1980-11-15 20:31:10.890 ,1,1,0.,24.0,0.,24.0,0.,24.0,0.,24.0
1980-11-15 20:31:34.890 ,1,0,0.,24.0,1.,24.0,0.,24.0,0.,24.0
1980-11-15 20:31:58.890 ,0,1,0.,24.0,0.,24.0,0.,24.0,0.,24.0
1980-11-15 20:32:22.890 ,0,0,0.,24.0,0.,24.0,0.,24.0,0.,24.0
1980-11-15 20:32:46.890 ,0,1,0.,24.0,0.,24.0,1.,24.0,0.,24.0
1980-11-15 20:33:10.890 ,0,0,1.,24.0,0.,24.0,1.,24.0,0.,24.0
1980-11-15 20:33:34.890 ,1,1,0.,24.0,0.,24.0,1.,24.0,0.,24.0
1980-11-15 20:33:58.890 ,1,0,0.,24.0,0.,24.0,1.,24.0,0.,24.0
1980-11-15 20:34:22.900 ,2,1,0.,24.0,0.,24.0,0.,24.0,0.,24.0
1980-11-15 20:34:46.900 ,2,0,0.,24.0,0.,24.0,1.,24.0,0.,24.0
1980-11-15 20:35:10.900 ,3,1,0.,24.0,0.,24.0,0.,24.0,0.,24.0
1980-11-15 20:35:34.900 ,3,0,0.,24.0,0.,24.0,0.,24.0,0.,24.0
1980-11-15 20:35:58.900 ,4,1,0.,24.0,0.,24.0,4.,24.0,0.,24.0
1980-11-15 20:36:22.900 ,4,0,0.,24.0,0.,24.0,0.,24.0,0.,24.0
1980-11-15 20:36:46.900 ,5,1,0.,24.0,0.,24.0,0.,24.0,0.,24.0
1980-11-15 20:37:10.900 ,5,0,0.,24.0,0.,24.0,0.,24.0,0.,24.0